Lid_Strength_Index
1 1 1 4 10 11 13 12 9 9 9 6 7 7 7 7 9 10 2 0 -0 -0 -1 -1 -2 -2 -2 -2 -2 -2 -2 -2 -2 -2 -2 -2 -2 -2 -2 -2 -2 -3 -2 -2 -2 -2 -2 -2 -2
2 1 3 6 12 15 14 10 10 8 7 6 6 6 7 8 5 4 3 0 -0 -0 -1 -1 -1 -1 -2 -2 -2 -2 -2 -3 -2 -2 -2 -2 -2 -2 -2 -2 -2 -2 -2 -2 -2 -2 -2 -2 -2
3 3 6 10 12 14 13 9 9 7 6 7 7 5 6 7 4 3 1 -0 -0 -0 -1 -1 -1 -1 -2 -2 -2 -2 -2 -3 -2 -2 -2 -2 -2 -2 -2 -2 -2 -2 -2 -2 -2 -2 -2 -2 -2
3 4 6 12 14 11 10 8 7 8 7 6 6 8 5 3 3 2 0 -0 -0 -0 -1 -1 -1 -2 -2 -2 -2 -2 -2 -2 -2 -2 -2 -2 -2 -2 -2 -2 -2 -2 -2 -2 -2 -2 -2 -2 -2
5 6 11 13 13 10 8 7 7 8 7 7 6 9 7 4 2 1 0 0 0 -0 -1 -1 -1 -1 -2 -2 -2 -2 -2 -2 -2 -3 -2 -2 -2 -2 -2 -2 -2 -2 -2 -2 -2 -2 -2 -2 -2
7 7 13 15 13 10 8 6 7 7 7 7 7 8 7 2 2 1 0 0 -0 0 -0 -1 0 -1 -1 -2 -2 -2 -2 -2 -2 -3 -2 -2 -2 -2 -2 -2 -2 -2 -2 -2 -2 -2 -2 -2 -2
8 10 13 12 12 11 8 6 7 7 7 8 5 9 6 4 2 1 0 -0 0 -0 -1 -1 -1 -0 0 -0 -1 -1 -1 -2 -2 -2 -2 -2 -2 -2 -2 -2 -2 -2 -2 -2 -2 -2 -2 -2 -2
7 9 13 12 12 11 7 7 6 6 7 4 4 9 8 4 1 1 1 0 0 -0 -0 -1 -1 -1 -1 -1 1 0 -1 -1 -2 -1 -1 -1 -1 -1 -1 -1 -2 -2 -2 -2 -2 -2 -2 -1 -1
8 11 14 12 12 10 7 8 6 5 7 6 5 5 4 2 1 2 2 2 1 1 0 -0 -1 -1 -1 -1 1 1 0 -0 -0 -0 0 0 -1 -1 -1 -0 -1 -2 -2 -2 -2 -1 -0 0 1
8 12 12 9 8 9 8 8 7 7 8 7 6 5 3 3 3 3 3 3 3 2 1 -0 -0 -0 -1 -1 -1 -1 -1 -1 -1 -1 -1 -1 -1 -1 -1 0 0 -1 -1 -1 -1 -0 1 2 2
8 11 9 9 7 8 9 9 8 7 9 7 7 6 5 4 4 4 3 3 2 2 1 0 -0 -1 -1 -0 -1 -1 -1 -1 -1 -1 -1 -1 -1 -1 -1 -1 -1 -1 1 1 0 2 2 2 3
11 8 9 8 7 7 8 7 8 7 7 6 5 4 4 4 4 4 3 3 2 2 2 1 -0 -0 -1 -1 -1 -1 -1 -1 -1 -1 -1 -1 -1 -1 -1 -1 -1 -0 1 2 2 2 3 4 4
9 9 7 7 7 7 6 8 8 8 7 7 4 4 5 4 4 3 2 2 2 2 2 1 0 -0 -0 -0 -0 -1 -1 -1 -1 -1 -1 -1 -1 -0 -0 0 0 1 1 2 2 3 5 5 5
9 9 9 7 7 7 8 8 7 7 5 6 5 5 5 4 4 3 3 3 2 2 1 1 1 -0 -0 -0 -0 -0 -0 -1 -0 -1 -1 -1 -1 -0 -0 1 1 1 2 2 2 3 4 6 6
10 11 10 8 8 8 7 10 10 6 6 6 6 5 5 4 4 4 3 3 2 2 1 1 1 1 0 -0 -0 -0 -1 -1 -0 -1 -1 -1 -0 -0 -0 1 1 2 2 3 3 4 5 6 7
12 11 14 9 8 8 8 13 8 6 7 7 6 6 5 5 4 3 3 2 2 2 2 2 0 1 1 -0 -0 0 0 0 -0 -1 -0 -0 -0 -1 -0 1 2 2 3 3 3 4 5 7 9
14 17 14 12 7 9 10 12 8 6 7 7 7 6 6 5 4 3 2 2 2 1 1 1 1 1 1 0 0 1 1 1 0 -0 -0 -0 -0 -0 1 1 2 2 3 3 4 5 6 8 10
18 18 16 15 10 10 11 12 9 7 8 7 7 6 6 6 5 3 3 2 1 1 1 1 1 0 1 1 1 1 2 1 1 -0 -0 0 0 0 1 2 2 3 3 4 4 6 7 9 9
15 16 17 15 10 11 11 11 10 8 8 8 7 7 7 6 4 4 3 2 2 1 1 1 2 1 1 1 2 1 2 1 1 0 -0 0 0 1 2 3 3 3 3 4 5 6 8 9 9
14 15 16 14 12 12 11 12 9 8 8 7 8 7 6 6 5 4 4 3 2 2 2 2 2 2 1 1 1 0 1 1 1 1 1 1 1 1 2 3 3 3 4 4 6 7 9 10 10
15 16 16 15 13 12 13 15 12 9 8 7 6 6 6 6 6 5 5 3 3 2 2 2 2 2 1 1 1 2 2 3 2 2 1 1 1 2 3 3 3 3 4 5 5 7 8 10 10
17 14 14 14 15 18 12 21 14 10 9 8 7 7 6 6 5 5 4 4 3 3 2 2 2 2 1 1 1 2 2 3 2 1 1 2 2 2 3 3 4 3 4 4 5 6 7 9 9
16 13 14 14 15 15 15 17 17 11 11 10 8 7 6 5 5 5 4 3 3 2 2 2 2 2 2 1 1 2 2 1 3 3 2 2 2 2 3 4 5 5 4 4 5 6 7 8 8
12 13 13 14 15 19 15 15 17 14 11 10 8 7 6 5 5 4 4 3 3 2 2 2 2 2 2 2 2 2 2 2 4 4 3 2 3 3 4 5 5 5 4 4 5 5 6 7 8
13 14 19 20 20 20 14 15 14 12 10 9 9 7 6 5 5 5 5 4 3 3 2 2 3 3 2 2 2 2 2 1 3 4 3 2 3 5 4 5 6 6 6 5 5 6 6 7 9
13 14 18 24 22 18 14 17 14 9 9 9 8 8 6 5 5 5 4 4 4 3 3 2 2 3 3 2 2 2 2 2 3 3 3 3 2 3 3 6 6 6 7 6 5 6 6 7 7
13 15 12 16 16 19 16 14 10 9 12 13 13 13 12 9 5 5 4 4 3 3 3 3 2 2 3 3 2 2 2 2 2 3 3 3 3 3 5 5 6 7 8 8 7 7 7 7 8
12 10 16 16 22 22 19 18 17 15 14 15 14 13 12 11 10 8 4 4 3 3 3 2 2 2 2 3 3 2 2 2 2 3 3 3 3 4 5 6 7 7 8 9 9 9 8 9 9
13 14 13 13 15 20 21 18 15 16 15 15 14 12 12 11 10 8 6 5 3 3 3 3 3 3 3 3 3 3 2 2 2 3 3 3 4 5 6 6 7 8 9 10 10 10 10 10 11
12 13 13 17 18 16 17 19 12 12 14 14 14 13 12 11 10 9 8 7 5 4 4 3 3 3 3 3 3 3 2 2 2 3 3 3 5 5 5 6 7 8 9 9 10 11 11 11 12